Weather History for Galliano, LA

Change the Weather History Date:

Sunday, November 4, 2012

  Actual Average (KAXO) Record (KAXO)
Temperature  
Mean Temperature 68 °F -  
Max Temperature 82 °F 69 °F 80 °F (2012)
Min Temperature 55 °F 65 °F 53 °F (2011)
Cooling Degree Days 4    
Growing Degree Days 18 (Base 50)    
Moisture  
Dew Point 62 °F    
Average Humidity 93    
Maximum Humidity 100    
Minimum Humidity 51    
Precipitation  
Precipitation 0.09 in - - ()
Sea Level Pressure  
Sea Level Pressure 30.08 in    
Wind  
Wind Speed 3 mph (NNW)    
Max Wind Speed 23 mph    
Max Gust Speed 30 mph    
Visibility 8 miles    
Events Fog , Rain , Thunderstorm    
Averages and records for this station are not official NWS values.
T = Trace of Precipitation, MM = Missing Value Source: NWS Daily Summary

Daily Weather History Graph

Daily Weather History Graph

Search for Another Location

Airport:

Trip Planner

Search our weather history database for the weather conditions in past years. The results will help you decide how hot, cold, wet, or windy it might be!

Date:

Astronomy

Nov. 04, 2012 Rise Set
Actual Time 6:16 AM CST 5:12 PM CST
Civil Twilight 5:52 AM CST 5:36 PM CST
Nautical Twilight 5:23 AM CST 6:05 PM CST
Astronomical Twilight 4:55 AM CST 6:32 PM CST
Moon 9:53 PM CST (11/4) 10:55 AM CST (11/4)
Length of Visible Light 11h 44m
Length of Day
10h 55m
Waning Gibbous, 72% of the Moon is Illuminated
Nov 4
Waning Gibbous
Nov 6
Last Quarter
Nov 13
New
Nov 20
First Quarter
Nov 28
Full

Hourly Weather History & Observations

Time (CST) Temp. Heat Index Dew Point Humidity Pressure Visibility Wind Dir Wind Speed Gust Speed Precip Events Conditions
12:15 AM 64.4 °F - 64.4 °F 100% 30.10 in 10.0 mi Calm Calm - N/A   Clear
12:35 AM 62.6 °F - 62.6 °F 100% 30.09 in 7.0 mi Calm Calm - N/A   Unknown
12:55 AM 62.6 °F - 62.6 °F 100% 30.09 in 10.0 mi Calm Calm - N/A   Unknown
1:15 AM 62.6 °F - 62.6 °F 100% 30.09 in 10.0 mi Calm Calm - N/A   Unknown
1:35 AM 60.8 °F - 60.8 °F 100% 30.09 in 4.0 mi Calm Calm - N/A   Mist
1:55 AM 60.8 °F - 60.8 °F 100% 30.08 in 7.0 mi Calm Calm - N/A   Clear
1:15 AM 60.8 °F - 60.8 °F 100% 30.08 in 3.0 mi Calm Calm - N/A   Clear
1:35 AM 59.0 °F - 59.0 °F 100% 30.08 in 5.0 mi Calm Calm - N/A   Mist
1:55 AM 59.0 °F - 59.0 °F 100% 30.08 in 7.0 mi Calm Calm - N/A   Unknown
2:15 AM 57.2 °F - 57.2 °F 100% 30.07 in 0.5 mi Calm Calm - N/A Fog Fog
2:35 AM 57.2 °F - 57.2 °F 100% 30.08 in 1.5 mi Calm Calm - N/A   Mist
2:55 AM 55.4 °F - 55.4 °F 100% 30.07 in 10.0 mi Calm Calm - N/A   Unknown
3:15 AM 55.4 °F - 55.4 °F 100% 30.07 in 10.0 mi Calm Calm - N/A   Unknown
3:35 AM 57.2 °F - 57.2 °F 100% 30.07 in 5.0 mi Calm Calm - N/A   Mist
3:55 AM 57.2 °F - 57.2 °F 100% 30.07 in 1.8 mi Calm Calm - N/A   Mist
4:15 AM 55.4 °F - 55.4 °F 100% 30.07 in 1.0 mi Calm Calm - N/A   Mist
4:35 AM 55.4 °F - 55.4 °F 100% 30.08 in 10.0 mi Calm Calm - N/A   Unknown
4:55 AM 55.4 °F - 55.4 °F 100% 30.08 in 10.0 mi Calm Calm - N/A   Unknown
5:15 AM 57.2 °F - 57.2 °F 100% 30.08 in 10.0 mi Calm Calm - N/A   Unknown
5:35 AM 59.0 °F - 59.0 °F 100% 30.09 in 10.0 mi Calm Calm - N/A   Unknown
5:55 AM 59.0 °F - 59.0 °F 100% 30.09 in 2.5 mi Calm Calm - N/A   Mist
6:15 AM 59.0 °F - 59.0 °F 100% 30.10 in 10.0 mi Calm Calm - N/A   Unknown
6:35 AM 59.0 °F - 59.0 °F 100% 30.09 in 10.0 mi Calm Calm - N/A   Unknown
6:55 AM 59.0 °F - 59.0 °F 100% 30.10 in 10.0 mi Calm Calm - N/A   Unknown
7:15 AM 60.8 °F - 60.8 °F 100% 30.10 in 7.0 mi Calm Calm - N/A   Unknown
7:35 AM 64.4 °F - 64.4 °F 100% 30.10 in 10.0 mi Calm Calm - N/A   Unknown
7:55 AM 68.0 °F - 68.0 °F 100% 30.11 in 10.0 mi Calm Calm - N/A   Clear
8:15 AM 75.2 °F - 73.4 °F 94% 30.11 in 10.0 mi Calm Calm - N/A   Clear
8:35 AM 77.0 °F - 75.2 °F 94% 30.11 in 10.0 mi South 3.5 mph - N/A   Clear
8:55 AM 78.8 °F - 71.6 °F 78% 30.10 in 10.0 mi South 4.6 mph - N/A   Clear
9:15 AM 78.8 °F - 68.0 °F 69% 30.10 in 10.0 mi South 5.8 mph - N/A   Clear
9:35 AM 78.8 °F - 66.2 °F 65% 30.10 in 10.0 mi South 8.1 mph - N/A   Clear
9:55 AM 78.8 °F - 64.4 °F 61% 30.10 in 10.0 mi South 9.2 mph - N/A   Clear
10:15 AM 80.6 °F 82.3 °F 64.4 °F 58% 30.10 in 10.0 mi South 9.2 mph - N/A   Clear
10:35 AM 80.6 °F 82.3 °F 64.4 °F 58% 30.09 in 10.0 mi South 8.1 mph - N/A   Clear
10:55 AM 80.6 °F 82.3 °F 64.4 °F 58% 30.08 in 10.0 mi South 8.1 mph - N/A   Clear
11:15 AM 82.4 °F 83.9 °F 64.4 °F 54% 30.07 in 10.0 mi South 10.4 mph 16.1 mph N/A   Clear
11:35 AM 82.4 °F 83.9 °F 64.4 °F 54% 30.06 in 10.0 mi South 12.7 mph 17.3 mph N/A   Clear
11:55 AM 82.4 °F 83.4 °F 62.6 °F 51% 30.05 in 10.0 mi South 9.2 mph 16.1 mph N/A   Clear
12:15 PM 82.4 °F 83.9 °F 64.4 °F 54% 30.04 in 10.0 mi SSE 10.4 mph - N/A   Clear
12:55 PM 77.0 °F - 62.6 °F 61% 30.07 in 10.0 mi NNW 23.0 mph 29.9 mph N/A Thunderstorm Scattered Clouds
1:15 PM 68.0 °F - 64.4 °F 88% 30.09 in - NNW 18.4 mph 27.6 mph N/A Thunderstorm Thunderstorm
1:35 PM 66.2 °F - 64.4 °F 94% 30.09 in 7.0 mi NNW 17.3 mph 21.9 mph 0.02 in Rain Light Rain
1:55 PM 64.4 °F - 64.4 °F 100% 30.08 in 7.0 mi NNW 13.8 mph - 0.04 in Rain Rain
2:15 PM 64.4 °F - 64.4 °F 100% 30.07 in 10.0 mi NNW 17.3 mph - 0.03 in Rain Light Rain
2:35 PM 66.2 °F - 66.2 °F 100% 30.07 in 10.0 mi North 15.0 mph - 0.04 in Rain Light Rain
2:55 PM 66.2 °F - 66.2 °F 100% 30.06 in 10.0 mi North 9.2 mph - 0.04 in Rain Light Rain
3:15 PM 66.2 °F - 66.2 °F 100% 30.07 in 10.0 mi North 6.9 mph - N/A Rain Light Rain
3:35 PM 66.2 °F - 66.2 °F 100% 30.06 in 10.0 mi North 6.9 mph - 0.01 in Rain Light Rain
3:55 PM 68.0 °F - 68.0 °F 100% 30.06 in 10.0 mi NNE 6.9 mph - 0.01 in   Scattered Clouds
4:15 PM 68.0 °F - 68.0 °F 100% 30.05 in 10.0 mi North 4.6 mph - N/A Rain Light Rain
4:35 PM 68.0 °F - 68.0 °F 100% 30.04 in 10.0 mi NNE 3.5 mph - N/A   Light Drizzle
4:55 PM 66.2 °F - 66.2 °F 100% 30.04 in 10.0 mi NNE 5.8 mph - N/A   Clear
5:15 PM 66.2 °F - 66.2 °F 100% 30.04 in 10.0 mi Calm Calm - N/A   Scattered Clouds
5:35 PM 66.2 °F - 66.2 °F 100% 30.04 in 10.0 mi Calm Calm - N/A   Clear
5:55 PM 64.4 °F - 64.4 °F 100% 30.04 in 10.0 mi Calm Calm - N/A   Clear
6:15 PM 64.4 °F - 64.4 °F 100% 30.04 in 10.0 mi Calm Calm - N/A   Clear
6:55 PM 60.8 °F - 60.8 °F 100% 30.05 in 10.0 mi Calm Calm - N/A   Scattered Clouds
7:15 PM 60.8 °F - 60.8 °F 100% 30.05 in 10.0 mi SE 3.5 mph - N/A   Clear
7:35 PM 60.8 °F - 60.8 °F 100% 30.05 in 10.0 mi Calm Calm - N/A   Clear
7:55 PM 59.0 °F - 59.0 °F 100% 30.06 in 10.0 mi Calm Calm - N/A   Clear
8:15 PM 59.0 °F - 59.0 °F 100% 30.06 in 10.0 mi Calm Calm - N/A   Scattered Clouds
8:35 PM 57.2 °F - 57.2 °F 100% 30.07 in 10.0 mi NNW 5.8 mph - N/A   Scattered Clouds
8:55 PM 59.0 °F - 59.0 °F 100% 30.07 in 10.0 mi NNW 3.5 mph - N/A   Clear
9:15 PM 59.0 °F - 59.0 °F 100% 30.08 in 10.0 mi NNW 6.9 mph - N/A   Clear
9:35 PM 59.0 °F - 59.0 °F 100% 30.08 in 10.0 mi NNW 6.9 mph - N/A   Clear
9:55 PM 59.0 °F - 59.0 °F 100% 30.08 in 7.0 mi NNW 6.9 mph - N/A   Clear
10:15 PM 59.0 °F - 59.0 °F 100% 30.08 in 5.0 mi North 4.6 mph - N/A   Clear
10:35 PM 57.2 °F - 57.2 °F 100% 30.08 in 4.0 mi North 4.6 mph - N/A   Clear
10:55 PM 57.2 °F - 57.2 °F 100% 30.07 in 3.0 mi North 3.5 mph - N/A   Mist